Showing default

YAOGAN-30 U, 46807

Orbit data source: Space-Track

YAOGAN-30 U, 46807 is a payload satellite owned by PLA SSF (CN) in LEO that was launched on Mon, 26 Oct 2020 UTC via a CHANG ZHENG 2C launch vehicle from the Xichang Space Center, China (XSC). Payload-class satellites include a variety of spacecraft equipped with specific instruments for various scientific and technological missions. These include communications satellites like Starlink; space stations such as the ISS; scientific satellites like the Hubble; Earth observation satellites from companies like Planet Labs, Umbra, and HawkEye 360; GPS; miniature CubeSats for education and research; and military/defense satellites.

Loading next visibility...
Identifier
46807, 2020-076A
Orbit
LEO
Country
Flag of CNCN / PRC
Related business
Manufacturer
SECM
Mission
Operational Defense Sigint
Bus & Motor
Unknown
Mass
~500 kg wet, ~500 kg dry
Launch date (UTC)
2020-10-26 (6 years ago)
Launch vehicle
CHANG ZHENG 2C
Launch site
Xichang Space Center, China (XSC)
Object type
Payload
Rocket body
Debris
Shape & HBR
Box + 2 Pan, 0.5 m
Radar Cross Section
0.446 m², Large (>1 m²)

Expand to show TLE details & history
Last TLE update: 6 hours ago

TLE from 6 hours ago
0 YAOGAN-30 U
1 46807U 20076A   26126.52025125  .00002705  00000-0  20173-3 0  9999
2 46807  34.9952 345.1563 0001040 286.8121  73.2473 15.02507383301845
Epoch: 2026-05-06T12:29Z
TLE epoch observation values (Epoch: 2026-05-06T12:29:09.708Z)
Latitude
-0.00004°
Longitude
-66.51376°
Altitude
557.876 km
Speed
7.585 km/s
True Right ascension
23h 00m 37s
True Declination
0° 00' 00"
Sunlit
Object was in daylight at epoch
Visualization orbit readout
Latitude
Unknown
Longitude
Unknown
Altitude
Unknown
Speed
Unknown
Apparent Right ascension
Unknown
Apparent Declination
Unknown
Sunlit
N/A
Visualization observer readout
Local Sidereal Time
02:28:41
Azimuth
Unknown
Elevation
Unknown
Doppler factor
Unknown
Orbital elements
Apogee altitude
563.111 km
Perigee altitude
561.668 km
Semi-major axis
6,940.526 km
Eccentricity
0.0001
Inclination
34.9952°
RAAN
345.1563°
Arg. of periapsis
286.8121°
True anomaly
73.25871°
Mean anomaly
73.2473°
Eccentric anomaly
73.25301°
Mean motion
3.75366 °/min
Orbital period
95.91 mins
BSTAR
0.00020173
Loading maneuver chart data...
Computing Atmospheric mass density...
Loading historical data...
Loading historical data...
Loading historical data...
Loading historical data...
Loading historical data...
Loading historical data...
Loading historical data...
Other satellites on launch #76 in the year 2020 (2020-10-26 UTC)

Documentation

Showing up to 5 results
|